AirNav   ProFlight Series 2 Aviation Headset
 
 539 users online  

II59 Strip Airport
Newport, Indiana, USA

GOING TO NEWPORT?


FAA INFORMATION EFFECTIVE 16 JULY 2020

Location

FAA Identifier: II59
Lat/Long: 39-50-24.1370N 087-23-37.0580W
39-50.402283N 087-23.617633W
39.8400381,-87.3936272
(estimated)
Elevation: 650 ft. / 198 m (estimated)
Variation: 01W (1985)
From city: 3 miles N of NEWPORT, IN
Time zone: UTC -4 (UTC -5 during Standard Time)
Zip code: 47854

Airport Operations

Airport use: Private use. Permission required prior to landing
Activation date: 05/1982
Control tower: no
ARTCC: INDIANAPOLIS CENTER
FSS: TERRE HAUTE FLIGHT SERVICE STATION
Attendance: UNATNDD
Segmented circle: no

Airport Communications

WX AWOS-3 at PRG (15 nm SW): 124.175 (217-465-4304)

Nearby radio navigation aids

VOR radial/distance  VOR name  Freq  Var
TTHr340/22.1TERRE HAUTE VORTAC115.3002E
DNVr163/28.2DANVILLE VORTAC111.0002E

 
NDB name  Hdg/Dist  Freq  Var  ID
CRAWFORDSVILLE253/23.638804WCFJ -.-. ..-. .---

Airport Services

Runway Information

Runway 7/25

Dimensions: 1000 x 50 ft. / 305 x 15 m
Surface: turf
RUNWAY 7  RUNWAY 25
Traffic pattern: leftleft
Obstructions: 40 ft. trees, 200 ft. from runway40 ft. trees, 200 ft. from runway

Airport Ownership and Management from official FAA records

Ownership: Privately-owned
Owner: MALCOLM H. AUKERMAN
BOX 67
NEWPORT, IN 47966
Phone 765-492-4329
Manager: MALCOLM H. AUKERMAN
BOX 67
NEWPORT, IN 47966
Phone 765-492-4329

Airport Operational Statistics

Aircraft based on the field: 1
Single engine airplanes: 1
    

Additional Remarks

OWNER DESIRES AIRPORT NOT TO BE CHARTED.
FOR CD CTC HULMAN APCH AT 812-877-7581.

Instrument Procedures

There are no published instrument procedures at II59.

Some nearby airports with instrument procedures:

KPRG - Edgar County Airport (15 nm SW)
3I3 - Sky King Airport (18 nm S)
KCFJ - Crawfordsville Regional Airport (23 nm E)
KDNV - Vermilion Regional Airport (23 nm NW)
KHUF - Terre Haute Regional Airport (24 nm S)
 
Loc | Ops | Rwys | IFR | FBO | Links
Com | Nav | Svcs | Stats | Notes
Area around II59 (Strip Airport)
 
Road maps at: MapQuest Bing Google
 
Aerial photo
No photo
 
Sectional chart

 
Airport distance calculator
Flying to Strip Airport? Find the distance to fly.

From to II59

Sunrise and sunset
Times for 09-Aug-2020
 Local
(UTC-4)
 Zulu
(UTC)
Morning civil twilight06:2810:28
Sunrise06:5810:58
Sunset20:5200:52
Evening civil twilight21:2101:21

Current date and time
Zulu (UTC)  09-Aug-2020 05:34:17
Local (UTC-4)  09-Aug-2020 01:34:17
 
METAR
KPRG 
15nm SW 
090515Z AUTO 00000KT 10SM CLR 21/20 A3013 RMK AO2 LTG DSNT SW T02100202
KCFJ 
23nm E 
090515Z AUTO 00000KT 10SM CLR 18/17 A3015 RMK AO2 T01750167
KHUF 
24nm S 
090453Z AUTO 00000KT 10SM CLR 21/20 A3014 RMK AO2 SLP203 T02060200 402890139
KDNV 
24nm NW 
090515Z AUTO 00000KT 10SM CLR 20/20 A3014 RMK AO2 T02010201
KGPC 
29nm SE 
090515Z AUTO 17003KT 10SM CLR 20/19 A3015 RMK AO2 LTG DSNT W T01990186
TAF
KHUF 
24nm S 
081720Z 0818/0918 18007KT P6SM FEW050 SCT250 FM090100 VRB04KT P6SM FEW250 FM091300 18007KT P6SM SCT050 BKN200
NOTAMs
Click for the latest NOTAMs
NOTAMs are issued by the DoD/FAA and will open in a separate window not controlled by AirNav.

 

 
 

Would you like to see your business listed on this page?

 If your business provides an interesting product or service to pilots, flight crews, aircraft, or users of the Strip Airport, you should consider listing it here.  To start the listing process, click on the button below
 
Add a business
 

Other Pages about Strip Airport

Update a link
 
Copyright © AirNav, LLC. All rights reserved. Privacy Policy  Contact